GFSSGP_700_spd_120.txt.gz
Wind_Speed
16 15 16 17 12 7 10 11 15 17 16 15 12 12 11 9 8 4 4 1 2 9 9 8 7 11 11 11 11 11 11 10 10 10 10 10 10 10 11 10 10 10 7 3 4 5 5 6 6
16 17 18 20 8 11 12 13 17 18 15 14 9 10 10 10 12 10 8 3 0 4 7 8 8 9 13 13 13 14 14 13 11 11 12 12 12 11 11 12 11 10 9 5 6 8 9 7 8
19 19 20 14 10 11 11 16 17 18 16 14 13 11 10 11 12 12 11 10 10 8 7 6 8 9 11 14 13 14 15 16 14 14 14 15 13 12 12 12 11 10 9 8 8 11 10 8 10
22 22 20 14 13 15 13 18 18 19 18 16 14 9 12 13 12 12 12 12 11 11 12 10 9 9 11 14 15 15 16 17 17 17 16 16 16 15 15 14 13 11 10 10 10 12 14 13 12
25 25 20 15 15 17 17 19 19 19 17 16 14 13 12 11 11 11 11 12 12 12 13 13 12 13 14 14 16 15 18 19 18 19 18 18 18 18 18 17 16 15 14 13 13 13 15 15 14
28 26 19 19 20 19 19 20 19 18 16 14 12 12 13 12 11 12 13 14 15 15 14 14 14 16 16 16 16 16 18 20 21 21 21 21 21 20 19 19 19 17 17 17 16 16 16 16 17
28 27 16 21 20 22 21 20 19 17 15 12 11 12 12 12 12 12 12 13 14 15 16 16 16 16 17 19 19 20 21 21 21 21 22 23 22 21 21 21 21 20 19 19 18 18 18 18 19
27 26 17 21 23 22 22 20 19 16 13 12 12 11 16 14 12 12 12 13 13 13 15 17 18 18 19 19 20 22 24 25 26 26 26 26 26 26 25 25 24 24 23 22 21 21 20 20 21
29 21 19 21 22 20 22 21 18 15 14 14 13 13 9 9 11 11 12 10 10 10 12 13 15 15 17 18 20 21 24 26 28 30 31 32 32 32 31 31 29 28 26 25 24 23 22 22 23
29 26 21 18 20 19 20 19 16 14 14 14 13 13 12 10 9 9 9 10 12 14 15 16 18 19 21 22 23 23 24 26 27 29 31 32 33 32 32 32 32 32 30 28 27 25 25 24 25
30 24 19 18 19 20 18 17 15 15 15 13 12 13 10 9 9 10 12 13 15 16 18 19 20 21 23 25 26 28 29 29 30 31 31 33 34 35 35 34 33 33 33 32 30 29 28 28 28
26 19 18 17 20 20 18 17 15 14 12 11 11 11 10 9 11 12 14 15 17 18 20 21 22 23 24 26 27 29 30 32 33 34 35 37 37 36 37 39 38 37 35 34 34 33 32 31 30
19 19 18 19 20 19 17 15 15 14 12 11 11 11 11 12 14 15 16 17 19 20 22 22 23 24 25 26 27 28 30 31 33 35 37 39 41 41 41 40 41 42 40 38 37 35 32 32 31
20 20 21 21 19 18 17 16 15 14 13 13 12 13 14 15 15 16 18 19 21 22 23 24 25 25 26 26 27 28 30 31 33 34 36 38 40 43 45 45 44 43 43 42 41 40 36 34 32
21 21 21 20 19 17 16 16 16 15 14 14 14 14 15 16 16 19 20 21 22 23 24 25 26 26 25 25 25 26 28 30 31 33 35 38 42 43 43 44 46 45 44 43 44 43 43 40 35
24 21 20 20 19 17 16 13 16 16 16 15 16 17 16 17 18 20 21 22 23 24 25 25 24 23 23 25 26 26 26 28 30 32 33 36 40 43 46 47 46 44 44 43 41 43 42 43 42
25 17 22 18 19 17 17 14 16 16 17 18 18 17 17 18 19 19 21 23 23 23 23 24 24 24 24 24 22 22 25 28 30 28 30 32 34 37 41 44 45 44 43 42 40 43 41 42 42
23 18 22 15 18 18 18 17 15 15 18 18 19 18 18 18 20 21 22 21 21 21 23 23 22 21 20 18 20 22 27 30 25 23 24 27 28 31 35 38 41 39 37 37 37 36 41 37 41
13 11 18 16 14 15 18 19 18 18 22 18 18 18 19 21 21 21 21 21 22 23 24 23 19 18 18 20 21 25 27 24 22 23 27 24 25 27 28 31 33 32 33 33 34 40 34 36 45
13 14 13 13 13 13 15 17 16 20 19 18 20 22 21 20 19 19 20 21 24 25 24 20 18 17 19 21 24 26 26 22 21 23 24 25 23 23 22 24 24 25 26 28 32 36 42 33 48
11 11 10 7 7 10 14 20 18 18 18 20 20 19 17 17 16 18 21 23 26 25 22 17 18 19 21 24 26 26 23 21 23 23 23 22 22 23 21 20 21 22 24 21 21 29 42 40 34
8 7 7 6 4 4 5 6 13 18 20 21 20 18 13 13 17 19 21 22 24 23 19 16 18 20 22 23 19 18 19 20 20 22 21 21 21 22 23 18 19 21 23 24 25 15 25 35 31
6 7 5 5 6 8 10 7 11 15 16 12 10 10 11 12 13 15 16 19 19 18 17 17 18 19 19 17 15 15 16 16 17 18 18 20 21 21 19 21 18 16 16 19 22 22 25 24 28
5 5 4 5 6 3 7 7 8 10 8 8 7 8 8 8 9 11 13 15 15 14 14 14 13 14 13 10 11 11 11 12 15 15 16 17 18 20 21 21 19 20 19 18 17 21 23 20 20
7 5 1 3 1 4 4 8 18 8 7 7 7 7 7 7 9 10 13 14 12 10 8 9 10 11 11 11 10 10 11 13 14 14 16 17 17 18 19 20 19 19 19 19 19 19 19 20 22
7 6 2 5 2 4 6 9 3 8 11 9 8 8 8 8 9 11 12 11 10 9 9 9 11 12 12 10 10 11 12 13 14 15 16 16 16 16 16 16 18 19 20 20 21 21 20 20 21
5 6 6 2 2 3 6 10 14 12 11 9 7 7 8 10 11 12 12 12 11 11 10 11 12 11 11 11 12 13 14 14 14 15 16 16 17 18 18 18 19 20 21 22 23 24 25 26 27
6 5 3 5 1 4 6 11 12 4 14 9 5 8 10 11 12 12 12 11 11 11 11 13 12 12 12 11 12 13 15 16 16 16 16 16 16 16 16 18 19 22 25 27 28 29 30 30 31
8 6 6 4 3 3 3 5 5 7 9 7 7 12 14 12 11 12 12 13 13 13 13 13 12 12 12 12 14 16 16 17 17 17 18 19 19 18 18 20 24 26 28 30 31 31 31 32 33
10 9 8 5 3 4 2 11 7 5 7 8 10 17 15 14 15 15 14 15 15 15 15 15 15 15 15 15 15 16 17 17 18 18 19 20 21 22 23 26 29 32 33 34 34 34 34 33 34

GFSSGP_700_spd_123.txt.gz
Wind_Speed
16 17 17 18 12 7 10 11 15 18 18 16 15 13 12 8 7 3 3 1 0 5 7 6 7 9 10 9 10 11 11 11 10 9 9 9 9 9 9 9 9 9 8 5 4 5 5 6 6
17 18 19 20 8 11 13 14 17 18 17 16 15 12 12 12 11 8 7 4 3 2 3 4 5 7 10 11 12 12 12 12 12 12 13 13 13 12 12 10 10 9 9 7 6 8 8 8 6
21 20 21 16 12 13 10 16 18 19 17 16 14 13 12 11 11 11 10 10 9 8 6 6 6 7 10 12 14 13 13 13 14 14 14 14 14 13 13 13 12 11 10 9 9 10 10 9 9
24 23 22 16 15 15 12 19 19 19 19 17 14 10 11 9 9 9 9 9 9 9 9 9 10 11 9 11 13 15 14 14 15 15 16 16 15 15 14 15 13 12 12 12 12 12 13 14 13
26 26 22 17 16 17 15 19 20 20 19 17 15 12 8 8 9 9 10 10 10 9 10 11 12 13 14 15 14 14 15 16 17 17 18 18 16 17 16 17 17 15 14 14 14 14 15 16 17
29 27 21 20 20 18 18 19 20 20 18 16 14 13 11 10 9 10 11 11 12 12 12 13 14 15 15 16 17 16 16 17 19 19 20 21 21 20 20 19 18 18 17 17 16 15 16 17 18
29 30 18 23 21 20 20 20 20 19 18 15 13 12 11 10 10 11 11 12 13 13 14 14 14 15 16 16 16 17 19 20 21 21 22 21 22 22 22 21 21 20 20 19 19 19 18 19 19
29 28 19 22 23 22 21 21 21 20 17 15 13 10 11 11 13 14 13 12 13 13 14 14 14 15 16 17 17 18 19 21 23 24 25 26 26 26 26 26 26 26 25 23 22 22 22 21 20
31 22 21 21 22 20 22 21 20 18 16 15 14 13 11 10 12 13 12 12 11 11 11 12 13 14 15 16 17 18 19 21 23 25 26 28 30 30 31 31 31 31 31 31 29 27 25 25 23
31 26 19 18 18 19 21 21 19 17 16 16 15 13 12 11 11 12 12 11 12 12 14 15 17 18 19 20 22 23 24 25 25 26 27 28 30 31 31 32 32 32 32 32 32 32 30 29 27
32 25 18 17 18 18 19 20 18 16 16 15 14 15 14 11 11 12 12 13 14 16 17 18 19 20 21 22 24 25 26 27 28 30 31 31 32 33 34 34 34 34 34 33 33 33 32 31 31
28 23 20 16 19 20 20 19 18 17 16 15 14 14 13 12 13 13 14 15 16 17 18 19 20 21 22 23 24 25 27 28 29 30 32 33 34 35 36 37 37 38 37 37 37 37 36 35 34
26 23 18 16 19 20 20 20 18 17 16 13 13 12 12 13 13 14 15 16 18 19 20 21 21 22 24 24 25 26 27 28 29 30 32 33 34 35 37 38 39 39 40 41 41 41 40 40 37
23 20 18 20 21 20 19 18 17 16 15 13 12 12 13 14 14 15 16 18 20 21 21 23 24 24 24 25 26 26 27 27 29 30 32 34 36 38 39 40 41 42 42 42 43 43 43 42 42
21 21 20 21 21 20 18 17 17 15 16 14 13 14 15 15 16 17 18 20 21 22 23 24 25 26 25 24 25 25 25 26 27 27 29 32 34 35 36 38 41 43 45 45 44 43 44 43 44
24 21 23 22 21 19 19 16 18 18 16 16 15 17 17 17 17 18 20 22 22 23 24 25 25 24 24 23 25 25 23 20 21 24 27 28 27 28 30 32 34 36 41 43 44 43 41 43 43
27 20 23 22 22 20 18 17 18 20 19 19 18 18 18 17 18 20 22 23 24 25 25 24 24 24 24 24 22 20 19 20 23 24 21 20 19 24 23 25 28 32 36 40 40 39 38 35 38
27 22 25 19 21 20 20 18 15 19 20 19 19 18 18 18 20 21 23 25 25 24 24 24 23 23 21 19 18 20 22 24 26 22 20 21 23 24 26 25 27 29 32 35 36 36 32 33 35
21 16 23 18 15 19 21 21 20 19 21 18 18 19 18 19 22 24 25 23 23 22 23 24 23 21 17 17 18 19 23 26 24 22 22 21 21 22 22 25 25 27 28 28 28 28 30 29 35
18 12 16 17 16 14 17 21 20 22 21 18 19 19 20 23 24 24 22 22 22 25 26 24 20 17 15 16 18 22 24 19 19 20 19 19 19 21 23 24 25 21 24 22 22 24 26 27 30
14 13 12 8 10 12 15 21 18 20 20 19 18 20 23 21 20 20 20 22 24 23 23 21 17 15 15 18 21 21 16 18 18 18 18 17 18 19 22 24 24 25 24 23 20 20 23 23 20
11 10 9 8 5 4 5 6 9 12 16 19 22 22 20 18 15 16 18 19 19 19 20 18 14 14 16 18 18 18 16 15 14 15 14 15 15 17 19 22 24 23 23 23 25 24 19 17 10
9 10 8 6 6 6 8 6 9 13 17 20 18 15 12 11 11 11 12 13 14 15 15 13 12 13 13 13 12 12 13 11 10 10 12 14 14 16 18 18 20 17 17 19 21 21 21 18 23
8 8 5 4 3 2 7 6 9 9 10 11 10 9 9 8 10 11 11 12 12 12 11 8 8 9 9 10 12 14 12 9 9 9 11 13 12 13 15 17 19 20 20 21 19 16 15 15 16
9 9 1 2 1 4 4 8 17 9 7 6 6 7 7 8 9 10 11 12 13 13 12 10 9 9 11 12 13 12 10 10 10 12 13 13 13 14 15 16 17 17 18 19 20 21 20 18 19
9 6 2 5 2 3 6 8 2 3 10 11 7 6 7 9 10 12 13 13 14 14 13 11 10 11 12 12 12 11 11 11 12 12 12 13 14 14 14 14 15 16 18 20 22 23 24 24 24
8 4 4 1 1 2 5 10 14 14 9 8 6 5 6 9 11 13 14 14 14 13 13 13 12 12 13 12 12 12 12 13 12 13 13 13 14 14 15 16 16 18 21 23 24 25 24 24 25
4 6 3 4 2 3 6 9 6 7 5 8 5 4 8 11 12 12 13 13 14 15 14 15 14 13 14 14 13 12 12 13 13 13 14 15 15 17 17 18 20 23 26 28 29 29 29 29 28
9 7 5 4 2 2 2 3 4 4 3 8 6 8 13 14 12 13 15 15 16 17 16 16 15 15 15 14 14 14 14 15 14 15 16 16 17 18 19 20 23 26 28 30 31 31 31 31 30
11 9 10 4 5 5 2 8 3 4 1 5 8 14 19 18 16 17 19 19 18 19 18 18 17 17 16 16 16 16 16 17 17 17 17 17 18 18 19 20 23 26 28 30 31 32 33 32 32

GFSSGP_700_spd_126.txt.gz
Wind_Speed
20 20 20 19 12 6 8 10 16 18 18 19 16 17 16 9 9 5 4 4 2 3 6 7 5 6 8 9 10 10 10 10 9 10 9 8 9 9 10 10 10 10 10 8 5 5 6 7 6
21 22 22 22 7 11 9 13 18 20 18 18 15 14 12 11 9 6 5 5 3 2 3 6 6 2 8 12 12 13 12 12 12 11 13 11 11 11 11 10 9 10 10 10 8 9 9 10 7
21 22 24 18 10 12 8 16 19 20 19 17 16 14 12 11 11 10 9 8 6 5 6 5 6 9 6 10 14 14 14 14 14 14 13 14 13 13 12 11 11 10 9 9 9 10 11 12 11
24 23 21 12 12 16 13 19 19 20 19 18 15 11 13 10 10 10 10 8 7 7 7 8 9 10 12 11 11 13 15 15 14 15 16 16 15 15 14 14 14 13 12 12 12 11 12 12 13
26 26 19 15 17 18 15 18 19 21 20 18 16 12 8 10 10 10 9 8 7 8 9 9 10 11 12 15 16 15 14 16 17 17 17 17 18 17 17 17 17 17 15 15 15 15 14 15 15
29 28 18 17 20 18 17 18 20 21 19 17 15 13 11 10 10 8 8 8 9 10 11 12 13 13 13 15 16 16 16 16 17 19 19 19 19 20 20 20 20 19 18 18 18 17 17 17 17
30 29 16 17 23 20 20 20 21 21 19 18 15 13 12 12 12 11 9 10 11 12 12 12 13 14 15 15 15 16 16 18 20 21 22 22 22 22 22 22 22 22 21 21 21 21 20 21 21
30 29 20 25 24 22 21 21 21 21 19 16 14 11 13 12 11 12 13 14 13 13 13 13 14 13 14 14 15 16 17 18 20 22 23 24 25 26 26 27 27 27 27 26 26 26 26 25 24
32 23 19 23 24 22 21 22 22 20 19 17 15 13 11 11 13 14 14 13 13 13 13 13 14 14 15 16 17 18 19 20 21 22 23 24 26 27 28 28 30 31 32 31 31 31 30 30 30
33 27 23 21 20 20 20 21 20 20 18 17 15 14 14 13 13 13 14 14 13 13 13 14 16 17 19 21 22 23 24 24 25 26 26 27 29 29 30 30 31 31 32 32 33 33 33 33 33
34 27 21 21 18 18 19 21 19 18 17 15 14 14 15 14 14 14 14 13 13 14 16 17 18 20 21 22 23 24 25 25 26 27 28 28 29 30 31 32 33 33 34 34 34 32 32 33 34
31 26 22 19 19 20 21 20 20 20 17 16 15 16 17 16 14 13 14 14 15 17 18 19 20 21 22 23 24 24 25 26 27 28 28 29 30 31 32 33 34 35 35 36 37 37 37 35 34
26 27 24 18 20 21 22 22 20 19 17 16 16 16 16 14 14 14 15 16 17 18 19 20 21 22 23 24 25 26 26 27 27 28 29 30 31 32 33 34 35 36 37 37 38 39 40 42 42
26 25 20 20 21 22 22 21 20 19 17 16 15 15 14 14 15 15 16 17 18 20 20 22 22 23 25 26 26 26 26 25 25 26 28 29 30 32 33 33 34 34 36 38 39 40 41 41 43
25 24 20 22 23 23 21 21 21 18 17 16 16 15 15 16 16 16 17 19 20 21 22 23 24 26 27 26 25 25 24 24 24 24 23 24 28 28 27 26 26 28 27 28 30 32 36 41 43
26 22 23 23 23 22 21 17 20 19 17 17 17 17 17 17 17 18 19 21 22 22 24 25 27 28 26 25 24 24 23 21 19 20 22 25 22 21 20 23 23 24 27 28 28 29 33 37 38
29 23 22 23 24 22 22 14 20 20 19 20 18 18 19 18 18 19 21 22 23 24 27 29 28 26 25 24 24 21 19 19 21 22 25 22 20 20 22 22 22 22 25 24 25 26 29 33 34
22 25 24 21 25 24 22 18 16 20 21 21 22 21 18 18 19 21 22 23 26 28 29 27 25 25 24 24 21 18 18 19 22 24 21 20 20 20 20 20 20 21 22 21 23 24 26 28 29
25 23 27 23 20 22 22 22 20 18 21 22 21 19 18 19 21 22 24 27 29 27 26 26 27 27 25 20 16 16 18 21 23 18 19 19 18 20 18 19 20 19 18 20 22 23 25 26 25
22 19 23 17 15 16 18 22 21 24 22 21 20 20 20 21 22 24 27 27 25 25 26 26 25 23 19 16 15 17 18 19 17 18 17 17 17 16 16 17 17 20 20 20 21 21 24 27 25
23 14 19 13 12 11 13 18 19 22 22 19 19 20 22 23 25 25 24 23 22 22 21 21 20 18 15 14 15 16 15 15 16 15 14 14 13 13 12 14 16 18 18 18 19 20 19 22 20
18 14 12 10 6 2 5 5 8 15 18 19 19 21 24 24 23 21 18 17 15 15 16 17 15 12 12 14 13 11 10 12 13 11 11 10 9 9 11 12 15 16 16 16 16 17 17 17 16
14 12 9 7 6 4 7 4 7 10 14 18 22 23 22 19 15 15 13 12 13 14 14 13 11 10 10 9 8 9 11 10 11 11 10 10 9 10 12 12 12 13 13 15 15 15 16 18 17
12 10 7 5 4 3 8 5 9 9 10 12 13 12 11 11 12 12 12 13 13 13 12 12 11 9 7 8 9 9 9 9 10 11 11 11 10 10 12 12 12 13 14 15 16 18 19 18 18
12 13 3 1 2 2 4 5 14 11 12 7 5 7 8 9 10 11 12 13 14 14 14 14 13 10 9 9 10 11 10 11 12 12 12 12 12 12 12 13 13 14 15 17 20 22 22 22 22
13 10 2 3 3 1 5 7 3 2 5 10 7 7 7 8 10 12 14 15 15 15 15 13 12 11 10 10 11 12 13 13 13 14 14 14 15 14 13 13 13 14 16 19 22 24 25 26 26
10 6 5 3 1 2 4 7 8 6 10 7 7 6 7 8 10 13 15 14 14 14 14 14 14 13 13 13 13 14 15 15 15 16 17 17 17 15 14 14 15 16 19 22 24 26 28 28 28
8 9 3 3 2 3 3 6 2 6 3 9 8 6 7 10 13 14 13 12 14 16 16 15 15 16 16 16 17 18 18 18 19 19 19 19 18 17 17 17 17 18 20 22 25 26 27 29 29
8 7 5 4 3 1 3 2 3 3 2 8 6 7 11 15 17 15 14 16 17 18 19 18 17 18 18 18 20 20 21 21 22 21 21 21 20 20 20 20 20 21 22 24 26 27 28 30 31
12 12 12 5 5 5 2 4 2 7 4 2 7 12 18 22 23 20 22 25 25 22 21 20 19 19 20 21 22 22 23 23 23 23 23 23 23 23 23 23 23 23 24 25 26 28 30 31 32

GFSSGP_700_spd_129.txt.gz
Wind_Speed
20 21 21 21 11 7 13 8 10 13 14 19 20 14 14 15 13 7 4 7 5 5 6 6 6 3 6 8 8 9 9 10 9 9 8 8 9 10 9 9 8 8 8 7 6 7 8 9 10
21 23 23 22 8 15 14 11 12 12 19 21 14 15 14 15 11 5 4 4 3 4 5 6 7 4 3 8 11 12 11 11 12 12 11 11 11 12 11 11 10 10 9 8 8 7 9 8 7
22 25 25 15 10 17 12 13 17 18 16 19 16 18 14 13 11 9 6 5 5 5 5 6 7 9 8 6 7 11 14 14 14 13 13 14 15 15 14 13 13 12 12 11 11 11 11 10 10
24 25 24 13 15 12 7 16 17 17 18 17 16 11 13 11 10 9 7 7 7 7 7 7 8 10 11 12 11 11 12 14 15 16 16 16 15 16 16 15 15 15 15 15 14 13 13 14 13
29 28 14 13 14 17 11 16 15 15 17 17 16 14 9 12 10 9 9 8 8 8 9 9 10 10 10 12 14 14 15 15 16 17 17 16 16 18 18 18 19 18 18 17 17 17 16 17 16
28 23 17 19 15 14 18 15 17 17 17 16 16 14 11 10 9 8 8 8 9 9 10 11 11 12 13 13 14 15 16 16 17 18 18 19 19 19 19 20 21 21 20 20 20 20 20 19 19
28 22 17 19 18 16 20 18 19 18 18 18 17 14 14 12 10 9 9 10 10 11 12 12 12 12 13 14 15 15 16 16 17 18 20 21 22 22 22 22 23 23 23 23 23 23 23 23 23
29 20 15 20 20 13 21 21 20 17 22 19 16 13 15 11 11 12 12 11 13 14 14 13 13 13 13 13 13 14 15 16 17 18 19 20 22 22 24 25 26 26 27 27 28 28 28 28 28
33 20 17 17 18 16 21 22 22 22 19 20 18 17 12 11 12 13 15 16 15 13 14 14 14 13 13 15 16 17 19 20 22 22 22 24 25 25 25 27 27 27 28 29 30 31 31 31 31
33 17 16 17 17 19 20 21 20 20 18 18 17 16 14 13 13 14 14 15 15 15 14 14 14 16 17 19 20 21 22 23 23 24 24 25 26 27 27 29 28 30 30 29 31 31 32 32 32
33 19 23 23 20 19 19 21 20 19 18 18 16 15 15 14 14 14 15 15 14 14 14 15 17 18 20 21 22 23 24 24 25 25 25 26 27 27 28 29 30 30 30 31 32 32 32 32 31
30 28 25 23 20 19 19 20 20 20 23 18 17 15 15 15 15 15 14 14 13 14 16 18 19 21 22 23 23 24 25 26 27 27 27 27 27 28 28 29 30 30 31 32 32 32 32 32 34
27 30 26 22 22 22 21 21 22 21 18 17 16 16 17 17 16 14 14 14 16 16 18 19 21 22 23 23 24 25 26 27 27 27 26 26 26 27 27 28 29 29 29 29 30 31 31 31 33
29 26 26 23 22 22 22 22 22 21 19 18 17 17 17 17 15 15 15 16 17 19 20 21 22 23 24 25 26 26 26 26 25 25 25 26 25 24 25 27 27 25 25 25 26 26 26 26 27
23 25 22 23 23 23 22 23 23 20 19 19 18 17 16 15 16 16 16 18 19 20 21 22 23 25 26 27 27 25 24 24 24 24 22 20 22 25 24 23 21 22 25 24 26 27 26 25 27
22 21 23 24 24 23 22 16 24 21 20 19 18 17 16 16 17 17 19 19 20 21 22 23 26 28 28 27 25 25 23 22 20 19 21 22 25 25 23 22 22 23 22 23 24 25 25 27 27
23 15 17 21 24 23 22 10 19 22 20 19 17 18 18 18 19 20 20 20 22 23 24 26 29 30 28 27 26 24 21 18 18 19 21 24 23 21 22 21 20 20 21 23 21 19 20 21 20
20 15 15 19 26 25 24 17 14 20 21 20 21 21 20 20 20 21 21 22 24 25 27 30 29 28 28 28 27 24 19 17 17 21 22 18 20 20 19 19 17 19 20 19 19 18 18 20 21
17 16 17 22 24 25 22 25 19 17 21 23 22 22 21 20 22 22 23 24 25 27 29 28 28 29 29 26 22 19 17 17 19 19 17 20 19 18 18 17 17 18 18 17 17 16 16 19 19
18 18 14 19 17 21 20 23 22 23 21 19 19 19 20 22 23 23 24 25 27 27 27 26 27 25 23 20 17 15 16 18 17 17 17 16 17 16 17 17 15 14 13 12 12 13 15 17 18
15 16 15 15 15 10 11 17 20 22 22 20 20 21 23 24 24 25 24 26 25 23 22 20 20 19 17 15 14 15 16 15 14 14 13 13 14 14 15 14 13 13 12 12 13 14 15 17 20
18 17 15 12 10 3 8 4 9 16 19 20 20 21 23 25 25 25 24 23 19 17 17 17 17 16 15 14 14 14 12 12 13 12 11 11 12 13 13 13 14 13 13 12 13 14 15 17 19
16 15 14 11 7 4 4 3 6 13 15 17 20 22 24 23 22 23 19 16 14 15 15 16 16 15 13 12 11 10 11 13 12 11 12 12 14 15 16 16 15 14 12 13 13 14 16 18 19
18 13 9 7 4 2 7 5 4 7 12 16 17 20 20 18 16 14 14 13 14 15 16 16 17 15 14 13 12 13 12 12 12 13 14 15 17 18 18 17 16 15 14 13 14 16 18 20 21
15 12 4 2 1 1 4 6 9 9 10 12 9 8 9 10 11 10 11 13 15 17 18 18 17 14 13 14 14 14 14 14 14 16 17 18 18 19 19 19 19 18 17 16 17 18 19 21 22
13 9 2 3 5 4 5 6 3 4 4 9 9 9 8 8 8 10 12 14 17 18 17 16 15 15 15 16 16 17 17 16 18 19 20 20 20 21 20 21 20 20 19 19 20 21 22 23 24
9 5 5 2 1 1 4 5 8 8 9 11 9 8 7 8 9 10 13 15 15 15 15 16 16 17 17 18 18 19 19 19 20 21 23 23 22 22 22 22 22 22 22 22 23 23 24 25 26
12 11 2 2 2 3 5 4 4 4 4 7 9 7 8 9 11 13 15 16 16 17 18 18 19 19 19 19 20 21 21 22 23 24 24 24 24 23 23 23 24 24 24 24 24 24 25 26 27
8 8 5 4 2 2 2 6 2 2 2 7 7 8 11 13 16 19 21 19 20 23 25 24 22 21 21 22 23 23 24 24 25 26 26 26 26 25 25 25 25 25 26 26 26 26 26 26 27
14 9 9 4 4 4 2 0 2 4 3 6 9 12 15 18 23 24 23 22 24 23 23 23 24 24 23 24 25 24 25 26 26 27 28 28 28 27 28 28 28 27 27 27 27 27 27 27 28

GFSSGP_700_spd_135.txt.gz
Wind_Speed
22 21 21 20 14 7 13 6 21 19 18 20 22 20 15 13 17 4 4 4 7 4 4 5 5 3 3 2 4 4 6 7 7 8 8 8 7 8 8 8 8 8 8 8 9 9 8 8 8
24 22 24 23 11 14 16 12 18 23 22 25 23 20 18 16 15 2 4 7 4 2 2 4 4 5 5 3 4 4 5 6 7 8 9 9 9 10 10 9 9 8 7 8 8 9 9 10 10
26 24 26 18 16 20 6 18 18 19 23 26 26 22 16 17 13 9 5 2 1 2 3 3 5 5 6 6 7 8 8 7 7 9 10 11 11 11 11 10 10 10 10 10 11 11 11 12 11
28 25 27 19 21 14 10 20 20 20 26 26 21 17 15 11 14 11 5 2 3 2 3 4 6 7 8 9 9 10 10 11 11 12 12 12 12 12 13 13 13 13 13 13 14 14 14 14 14
31 30 23 21 21 11 13 16 17 14 19 22 22 15 12 12 11 8 4 3 4 3 4 5 7 8 9 10 11 11 12 12 13 13 14 14 14 14 15 14 15 15 15 15 15 15 16 15 16
32 31 24 24 19 15 16 16 17 15 17 20 19 17 11 12 10 7 5 4 4 4 5 7 8 10 10 10 11 11 12 13 13 14 14 14 15 16 16 17 17 17 18 18 17 17 18 19 19
33 34 29 26 22 21 22 20 17 19 17 16 16 15 12 11 9 8 6 5 6 6 7 9 11 10 10 11 12 11 10 10 11 12 13 14 16 16 17 18 18 19 20 20 20 20 21 20 20
32 34 28 25 24 24 21 19 15 15 18 18 18 13 10 10 9 8 6 6 7 8 10 10 9 10 10 9 9 10 12 13 14 15 16 18 19 18 19 20 21 22 22 23 23 23 23 24 24
35 27 27 22 21 24 21 23 22 20 17 15 14 8 9 8 7 6 6 6 8 9 9 10 11 11 10 10 11 13 15 17 17 17 19 20 21 21 21 21 22 23 24 24 24 24 25 25 25
34 28 24 23 21 24 21 23 26 21 17 15 13 10 9 7 6 6 7 8 9 10 11 11 11 10 11 12 14 15 16 18 19 19 20 21 22 22 23 24 24 24 24 25 25 25 25 26 26
32 29 20 14 19 18 19 22 24 21 16 12 11 10 10 9 8 8 9 10 11 12 11 10 10 11 13 15 17 18 19 19 19 20 22 23 23 23 23 23 23 23 24 24 25 26 25 26 26
33 29 19 19 20 21 19 19 25 21 18 15 12 13 11 10 10 10 10 12 12 12 11 10 11 13 14 16 17 19 20 20 22 24 25 25 24 23 22 22 22 22 23 23 24 24 23 23 23
36 30 18 20 21 20 20 20 22 21 18 15 13 13 13 12 11 11 13 13 12 12 11 12 13 15 17 18 19 20 23 24 24 26 25 23 22 21 20 20 20 22 23 22 21 21 22 22 21
32 31 19 19 21 21 20 20 19 20 16 14 13 14 13 13 13 13 14 12 11 11 12 13 15 17 19 20 22 24 27 28 24 24 23 21 19 19 19 19 21 24 23 21 22 23 22 19 18
27 31 23 21 22 22 21 21 20 18 16 15 14 14 14 13 14 14 12 12 11 12 13 15 17 19 21 24 26 27 27 27 24 21 21 19 18 18 20 22 23 21 21 22 22 22 20 20 19
23 25 26 23 21 23 22 20 20 18 15 16 16 16 15 15 14 13 12 13 12 12 14 17 19 21 24 27 29 27 25 27 25 20 19 17 17 19 22 20 20 21 20 20 19 19 20 19 18
24 22 27 24 21 20 20 15 18 18 17 17 16 16 16 16 15 13 13 12 13 14 17 19 21 24 28 30 29 27 25 24 22 18 16 15 17 19 17 21 20 18 17 16 17 18 18 18 18
24 18 25 23 23 19 19 15 16 16 19 18 18 18 16 15 14 14 13 13 14 16 19 21 23 26 27 27 27 22 21 19 17 15 15 16 18 20 20 19 17 16 16 16 17 18 17 16 16
22 15 25 20 18 20 18 19 18 15 13 17 19 17 16 15 17 16 13 14 16 18 20 22 25 25 23 22 23 20 18 17 15 14 16 19 19 20 19 17 15 15 14 15 17 18 17 17 17
18 18 22 21 20 21 20 21 20 18 14 12 13 15 16 17 16 14 13 15 17 19 21 23 24 21 21 21 20 19 18 17 16 17 18 19 19 18 17 15 15 15 15 15 17 17 18 17 16
19 21 21 18 17 15 15 18 19 18 17 17 17 16 17 16 15 14 14 15 18 20 21 23 19 19 20 20 20 19 19 18 18 18 18 18 18 17 16 16 16 16 17 17 17 18 18 19 18
24 20 19 15 17 7 12 3 9 12 16 18 16 16 17 18 18 18 17 17 19 20 20 18 18 19 21 22 23 23 20 19 17 17 18 18 16 17 18 18 18 18 18 19 19 18 19 20 21
20 19 12 15 13 11 11 4 7 11 9 13 14 15 16 18 19 20 19 17 19 18 15 17 18 21 22 23 23 21 19 17 17 18 18 18 19 19 20 20 21 20 20 20 20 20 21 22 23
22 22 20 15 12 2 10 9 5 8 11 10 11 11 11 13 15 18 18 16 13 13 15 18 20 22 24 23 21 19 18 18 18 19 19 20 20 21 22 22 23 23 23 22 22 22 23 24 24
25 27 6 3 0 4 12 9 5 7 5 7 8 8 10 11 11 11 10 11 12 14 17 19 21 22 20 19 19 20 20 19 19 20 21 21 21 22 23 23 23 23 23 23 22 22 24 25 25
32 13 6 6 4 4 9 8 4 9 10 10 11 11 9 8 8 9 10 11 13 15 17 20 20 20 19 20 20 20 21 21 21 22 22 23 23 24 25 24 24 24 24 24 24 24 25 25 26
22 8 6 8 6 4 6 6 7 9 9 9 9 9 8 9 9 10 11 12 14 17 20 22 21 21 22 23 22 21 21 22 22 22 23 23 24 25 25 26 26 26 26 26 25 26 26 27 27
16 12 5 4 3 2 4 4 3 5 7 8 8 9 9 9 10 11 13 16 19 22 25 23 22 24 24 23 22 22 21 22 22 22 23 24 25 26 25 26 26 27 27 27 28 28 29 29 29
15 13 5 5 2 4 3 3 6 7 5 5 7 8 8 10 12 14 17 20 21 20 20 21 23 23 24 26 25 24 22 23 22 22 23 25 26 27 27 27 28 29 28 28 29 29 30 30 30
14 15 9 4 5 3 2 4 6 5 6 7 7 6 8 12 16 17 17 16 16 15 16 18 20 22 24 26 26 24 24 24 24 24 24 27 27 29 28 28 29 29 29 29 30 30 31 31 31

GFSSGP_700_spd_138.txt.gz
Wind_Speed
25 24 22 21 15 9 15 17 13 18 18 24 20 17 13 12 10 3 2 7 8 7 6 5 3 3 2 2 4 6 6 6 7 6 6 6 6 6 6 6 6 6 6 6 7 7 7 7 7
28 25 24 23 13 18 18 15 19 20 19 23 21 18 15 12 10 2 6 10 5 4 5 5 5 5 5 4 4 4 5 5 7 8 9 9 9 9 9 9 8 8 8 8 8 9 9 9 9
29 26 27 20 19 26 21 19 21 22 24 23 23 20 17 13 12 7 4 3 2 3 4 4 5 5 6 7 8 9 9 9 8 9 10 11 12 12 11 11 11 10 11 11 11 12 12 12 11
31 29 28 22 24 25 21 22 21 22 25 25 23 22 19 15 13 8 3 4 2 2 3 4 4 5 7 8 9 10 10 11 11 12 13 13 13 13 11 12 12 13 13 14 14 14 14 14 14
32 32 28 24 24 23 22 20 23 21 21 27 26 22 19 14 14 9 8 5 3 2 3 4 5 5 7 10 10 11 11 12 13 12 12 14 14 14 14 15 15 16 16 16 16 15 16 16 16
36 34 30 25 25 17 20 20 21 20 20 25 27 22 15 16 12 11 9 5 4 3 4 5 6 8 9 10 10 11 12 12 12 12 12 12 13 13 14 15 16 17 17 18 18 19 19 19 18
37 38 31 26 27 22 24 23 20 20 18 23 24 21 14 14 12 10 8 6 5 4 5 7 9 9 9 11 11 11 10 9 10 11 14 15 16 16 17 18 19 20 20 20 21 21 22 23 23
36 38 27 26 28 27 26 25 21 17 21 23 22 19 16 12 10 9 7 5 5 6 8 10 9 9 11 11 10 10 11 12 12 13 15 16 17 17 18 19 20 21 22 22 22 22 23 24 25
41 34 30 27 31 28 27 26 22 19 20 21 18 15 15 14 10 8 6 5 6 8 9 9 10 10 10 10 10 11 13 14 14 15 16 18 19 20 20 21 22 22 23 24 24 24 25 26 26
39 37 32 27 31 27 27 22 21 22 19 18 19 15 13 12 10 7 6 7 8 8 9 10 11 11 10 11 12 13 14 15 16 17 19 20 21 22 24 25 25 24 24 24 24 23 24 25 26
38 35 29 29 28 29 25 21 19 20 17 15 13 13 11 10 7 6 7 7 9 10 10 10 10 10 11 13 14 15 16 16 18 19 21 23 24 25 25 25 24 23 22 21 21 22 22 23 23
35 33 24 32 26 28 26 21 21 20 17 15 15 16 12 10 8 7 8 9 10 11 11 11 10 10 12 13 15 17 17 19 21 23 25 26 25 24 23 21 21 21 20 22 22 20 19 19 19
32 30 22 26 28 28 25 23 23 22 20 16 13 13 12 10 9 8 9 10 11 12 11 10 10 11 13 15 16 19 21 22 25 25 25 24 22 21 19 19 19 20 21 23 22 20 20 20 20
32 25 24 28 30 28 26 23 23 24 21 18 15 14 13 11 10 10 10 11 12 11 11 11 12 13 15 17 18 22 25 25 27 26 25 22 20 18 17 18 20 21 22 21 19 19 19 17 16
32 24 25 26 26 26 24 21 23 21 21 19 17 15 13 11 11 11 10 12 11 11 11 11 13 15 17 20 22 25 28 27 25 25 24 21 19 18 17 19 21 18 20 21 19 17 15 16 16
26 27 24 26 25 23 22 21 22 20 19 17 17 15 13 11 11 11 11 11 11 10 12 13 15 17 19 22 25 26 27 27 23 20 19 18 16 16 17 19 18 21 19 18 16 15 15 15 17
26 24 26 26 26 23 21 14 20 19 17 17 16 15 13 12 11 11 12 11 11 12 13 14 17 19 21 24 25 23 22 22 19 17 15 13 14 16 18 19 20 18 15 14 14 13 14 15 16
25 19 27 21 22 21 19 15 14 18 17 15 16 15 13 13 11 13 12 12 13 14 14 16 18 20 23 24 21 21 21 19 18 16 14 13 15 17 18 19 19 17 15 14 13 12 12 14 15
23 18 26 22 20 18 17 17 14 16 19 19 16 15 14 13 15 14 13 13 14 14 15 18 19 21 23 21 20 19 19 19 17 16 16 16 17 17 17 17 15 14 14 14 14 15 15 15 17
20 21 27 24 21 21 20 20 18 17 12 10 11 14 14 15 16 16 15 14 15 15 17 18 19 21 19 19 19 20 21 21 20 18 17 17 16 17 16 15 15 15 15 16 16 16 15 14 14
22 20 24 25 20 18 17 19 21 19 16 17 16 14 15 15 16 16 15 14 14 17 18 18 20 18 18 18 20 22 23 21 19 17 16 16 16 16 15 16 17 18 18 18 18 18 17 16 16
16 19 18 20 21 9 16 5 17 19 19 18 17 18 19 19 17 16 14 14 16 18 17 19 16 16 18 20 22 23 23 19 16 16 16 16 15 16 17 17 18 19 19 20 20 19 18 18 19
16 19 17 15 18 13 16 5 8 14 17 19 20 21 22 19 18 17 16 15 16 16 17 14 15 17 19 22 24 22 19 17 17 17 17 17 17 18 18 19 20 20 20 20 20 20 20 20 20
23 22 17 15 15 2 12 10 8 14 17 13 14 16 15 16 15 14 14 14 13 13 12 14 16 18 20 23 20 18 18 19 19 19 19 18 19 20 21 21 22 22 22 23 23 23 22 22 23
25 27 7 2 1 5 14 11 6 11 11 11 9 9 10 11 12 12 11 9 10 11 13 15 17 20 22 21 20 20 20 20 20 20 20 20 20 22 23 23 24 24 25 25 24 24 24 25 26
31 19 6 6 4 4 12 8 6 15 13 10 10 11 11 10 9 9 9 10 11 12 13 16 19 22 23 22 22 23 24 22 21 21 21 21 22 22 23 24 24 25 25 26 26 26 26 26 27
32 12 4 8 6 4 7 7 9 13 14 13 11 9 9 9 9 9 10 11 12 14 17 20 24 25 24 23 24 23 23 23 23 23 22 23 23 24 24 25 25 26 26 26 26 26 27 27 28
26 15 5 3 4 3 4 5 6 16 13 11 10 12 11 10 10 10 11 13 15 18 21 22 22 21 23 23 23 24 24 24 25 25 24 25 26 26 26 27 28 28 28 28 27 27 27 27 28
17 16 6 4 2 4 3 5 13 11 10 10 11 11 9 9 9 12 14 16 17 18 17 18 19 20 22 22 23 24 24 24 24 25 25 26 26 26 27 27 29 29 28 28 28 28 28 27 28
15 14 10 4 4 3 3 3 11 12 11 11 10 9 9 7 10 14 16 17 16 16 17 19 22 24 25 25 25 26 25 24 23 24 25 25 26 28 30 31 31 31 32 33 31 30 30 28 28

GFSSGP_700_spd_144.txt.gz
Wind_Speed
26 24 23 21 15 13 22 14 14 22 25 18 16 19 15 8 3 3 5 9 11 12 11 8 8 5 3 1 1 4 6 7 7 7 8 8 9 9 10 10 10 10 9 9 10 10 11 10 10
29 27 24 26 17 24 22 23 16 19 23 18 19 21 17 10 5 2 5 8 9 9 8 7 5 4 3 3 4 5 6 6 7 8 9 10 11 12 11 12 12 12 12 13 12 13 13 13 13
30 29 27 25 27 27 15 19 20 21 22 18 23 22 18 14 7 2 8 9 5 5 5 5 5 4 4 5 6 7 8 9 10 11 11 12 13 13 12 12 12 13 14 14 14 15 15 15 15
32 31 31 28 26 33 21 18 25 24 21 21 24 23 20 15 8 6 5 5 5 5 5 5 5 5 5 6 7 8 10 10 11 11 12 12 13 13 12 13 13 13 14 15 16 16 14 15 15
34 34 34 33 32 30 25 17 25 23 22 23 26 24 20 14 10 9 9 6 5 4 5 5 5 5 5 7 9 9 10 11 12 12 11 11 11 11 12 13 15 15 15 17 18 18 19 19 19
39 38 28 34 37 30 28 21 25 25 24 25 26 24 18 16 12 11 10 8 6 4 4 5 5 5 7 8 9 9 10 11 10 9 10 11 12 13 14 15 16 17 18 19 19 19 20 20 21
43 43 31 40 37 32 30 24 26 26 26 27 26 23 20 18 15 13 11 9 6 4 5 5 5 7 8 8 9 10 10 9 10 11 12 13 14 15 16 17 18 19 21 21 21 21 20 22 22
45 43 35 37 41 35 30 29 29 27 26 25 24 22 22 18 17 13 11 9 6 5 5 6 7 7 8 9 9 9 10 11 11 12 14 15 15 16 17 18 19 20 21 22 22 22 22 22 22
46 35 39 39 39 35 34 32 33 30 26 25 24 25 22 18 15 13 11 9 7 6 6 6 8 9 10 10 9 9 10 12 13 14 14 15 17 19 20 20 21 22 22 22 22 21 20 21 21
46 45 38 35 33 37 34 34 33 32 29 26 24 25 20 19 15 14 12 10 8 6 6 7 8 9 10 9 9 11 12 13 14 15 17 19 21 22 23 22 22 20 19 19 18 18 18 18 19
47 41 34 34 31 34 32 34 32 31 27 23 19 20 19 20 18 16 12 10 8 7 7 7 9 9 9 9 10 11 13 15 16 18 21 22 24 24 24 22 20 18 17 16 16 18 19 19 18
40 43 37 26 29 33 32 32 33 27 21 21 20 20 18 19 17 14 13 10 7 7 7 8 9 8 8 10 11 12 14 17 20 22 24 25 25 23 22 20 18 16 15 16 18 20 20 18 16
38 39 33 26 29 32 32 33 31 26 20 20 23 21 20 19 18 14 10 9 8 8 8 8 9 8 9 10 12 14 17 19 22 23 23 23 22 21 19 18 16 15 15 17 16 17 18 17 16
32 26 25 28 30 32 33 33 30 25 21 21 22 23 21 19 16 12 11 9 8 8 8 8 8 8 9 12 13 15 18 21 22 21 20 19 18 18 16 14 13 14 15 15 18 18 16 15 14
21 22 22 29 31 34 34 30 28 24 22 22 22 22 20 19 15 14 11 10 9 9 9 9 9 9 11 13 15 17 19 20 20 19 18 18 17 15 13 12 12 14 16 18 18 14 13 13 13
23 22 25 29 32 37 36 34 30 25 22 22 22 22 20 18 16 13 12 10 10 10 10 10 11 11 13 15 16 18 19 18 17 17 17 16 15 13 11 12 14 16 17 18 17 15 14 13 13
27 22 26 29 34 38 37 33 31 27 23 23 22 20 18 17 14 13 13 11 11 11 12 12 12 13 15 16 17 18 18 17 16 16 17 16 15 13 13 15 16 16 16 14 14 13 13 13 13
30 25 23 26 30 33 35 23 31 26 22 23 22 21 18 16 15 15 13 13 12 13 14 14 14 15 16 18 18 18 16 16 16 18 19 19 17 16 16 15 15 14 13 13 13 13 14 15 15
32 20 23 25 27 29 29 18 27 24 21 23 22 21 18 16 17 15 14 12 13 15 16 15 16 17 17 19 19 17 16 16 18 20 20 17 15 14 14 13 12 12 13 14 15 16 16 16 17
28 19 21 25 27 24 27 18 17 23 20 19 19 18 17 18 17 16 15 15 16 17 17 17 17 19 18 19 19 16 16 18 20 20 17 15 14 13 14 13 14 14 15 16 16 17 17 18 18
24 24 23 24 24 17 20 18 18 20 22 22 21 20 20 20 20 18 16 18 18 18 18 19 18 20 19 20 16 15 17 19 19 16 15 15 15 15 16 16 16 16 16 16 16 17 18 18 18
28 26 24 19 24 10 20 6 20 20 20 21 20 18 17 17 17 17 17 16 17 20 19 19 20 21 20 17 14 15 17 18 16 16 16 17 17 17 18 18 18 18 18 18 19 19 20 20 20
19 27 21 23 21 13 16 5 13 25 23 21 20 20 19 19 19 20 19 20 20 20 20 20 21 20 17 14 14 16 18 18 17 17 17 18 18 19 19 20 20 21 21 20 20 21 21 22 23
21 25 21 18 16 5 11 14 12 17 26 24 23 23 23 24 22 22 21 20 19 20 20 20 19 16 14 15 15 18 20 19 19 19 19 19 20 21 21 22 22 23 22 22 22 23 23 24 24
24 28 7 3 1 4 12 14 11 16 18 24 25 25 25 24 24 23 21 19 18 18 18 17 15 14 15 16 19 21 22 20 20 21 20 21 22 23 24 24 25 25 25 25 25 25 25 26 26
27 15 8 6 4 4 11 9 10 19 18 21 22 22 21 20 20 19 16 15 16 16 15 13 13 15 17 20 22 23 21 20 21 22 24 24 25 26 27 27 27 28 27 27 27 27 27 27 28
28 9 5 9 7 4 7 8 14 19 20 22 22 21 19 17 16 14 14 14 14 15 13 13 15 18 20 21 20 20 20 21 22 24 25 26 27 28 29 28 28 29 28 28 28 30 30 30 30
21 17 4 3 4 3 4 7 12 21 24 22 19 18 17 15 14 14 15 14 13 13 14 15 17 19 20 20 20 21 23 24 25 25 25 26 27 27 28 28 28 29 30 31 32 32 33 33 33
14 20 2 3 1 4 3 6 13 17 18 20 20 18 16 15 15 16 13 12 13 14 16 18 19 19 20 21 22 22 23 23 23 23 24 25 26 27 27 28 29 30 31 34 35 34 35 36 36
13 15 15 1 2 2 2 2 8 15 16 20 18 17 16 16 16 13 11 13 14 16 17 17 17 19 21 22 22 22 22 22 24 25 27 29 29 30 30 32 32 33 34 34 36 35 35 36 36

GFSSGP_700_spd_147.txt.gz
Wind_Speed
29 27 23 23 16 15 25 20 22 12 25 19 18 19 13 8 3 3 4 10 13 14 11 9 8 5 4 3 3 4 4 5 6 6 6 7 8 9 10 10 9 10 9 9 10 11 11 11 11
31 28 27 26 21 25 28 28 19 14 26 21 18 18 15 11 6 4 4 10 11 12 10 8 6 6 4 3 3 4 5 6 7 8 8 9 10 10 11 11 11 11 12 13 13 12 13 13 14
32 31 30 25 27 27 22 22 22 17 26 23 22 19 18 14 8 3 9 11 10 9 9 8 7 6 5 5 5 6 6 8 8 8 9 10 10 10 11 11 11 10 11 12 13 14 14 13 14
34 33 33 31 30 37 27 18 23 21 26 25 21 22 22 14 11 6 9 8 9 9 8 8 7 6 5 5 5 7 8 8 8 8 9 10 10 10 9 10 11 11 13 14 14 15 15 15 15
35 37 37 37 33 34 33 17 20 22 26 25 22 23 20 18 14 8 8 7 8 7 7 6 5 4 4 5 7 8 8 8 9 9 8 7 8 9 11 12 13 14 14 15 16 16 16 17 17
38 41 29 35 39 35 34 28 20 25 26 24 25 24 21 20 16 9 9 9 7 7 6 5 4 5 6 7 7 8 9 9 8 8 8 9 10 11 12 13 14 15 15 15 16 17 17 18 18
42 44 37 38 37 39 31 31 23 27 26 25 27 26 23 22 17 11 10 10 9 7 6 5 5 5 6 6 7 8 8 8 8 9 10 10 11 12 13 14 15 16 17 18 18 19 19 20 20
44 45 34 33 42 39 35 30 26 29 27 27 27 28 25 19 15 12 11 12 10 8 7 5 5 5 5 7 7 7 8 8 9 11 11 12 13 14 15 16 17 18 19 20 20 20 20 20 20
44 35 36 41 36 41 34 31 29 32 30 30 29 28 23 18 16 13 13 13 11 9 7 5 5 5 5 6 6 7 8 9 10 12 13 14 16 17 18 19 19 20 20 20 19 19 18 18 18
45 47 34 40 35 36 32 32 31 34 33 31 29 26 23 20 16 15 15 14 12 9 7 5 5 5 5 6 6 7 8 10 12 13 15 17 19 20 21 21 20 19 18 17 17 16 16 16 17
45 43 39 31 35 31 35 33 32 33 33 31 26 21 21 18 20 18 17 14 11 9 7 5 5 6 6 5 6 8 9 11 13 16 18 20 21 22 22 20 19 18 17 15 15 15 17 17 17
38 47 40 22 30 29 30 31 33 34 33 28 24 21 19 21 22 19 17 15 12 9 7 6 5 6 6 5 7 9 11 13 15 18 20 21 21 21 20 19 17 16 15 14 15 16 15 16 16
39 30 33 32 24 26 29 32 32 33 31 27 24 23 22 24 24 21 18 14 12 10 7 6 6 6 7 6 8 11 13 15 17 18 19 18 18 18 17 16 15 14 13 14 15 16 18 16 14
34 26 37 34 22 27 29 32 32 33 30 24 25 23 24 25 23 19 17 16 11 10 7 7 6 7 7 8 10 12 14 16 17 18 17 17 17 17 16 14 12 12 13 14 16 18 16 14 13
16 30 25 31 25 29 31 31 35 32 28 25 26 25 27 26 23 21 20 14 11 10 9 8 7 8 9 9 11 13 15 17 17 16 15 15 16 15 14 12 11 13 15 17 17 17 15 13 13
20 27 26 30 29 31 34 37 35 31 28 26 25 28 25 24 22 21 16 14 11 10 9 9 9 10 10 11 13 14 16 17 15 14 14 15 16 15 14 14 14 15 16 16 15 12 11 10 10
28 24 30 30 33 34 38 33 36 30 28 25 26 25 26 25 21 18 16 14 11 11 11 10 10 11 11 13 14 15 16 17 14 13 14 16 17 15 15 14 15 16 15 13 12 11 11 11 12
29 25 30 31 32 34 37 24 33 28 25 24 24 25 25 24 20 18 16 15 13 12 12 12 12 12 13 14 15 16 16 16 14 14 15 17 16 13 12 13 13 12 11 11 12 12 13 13 13
32 27 27 27 31 31 33 22 29 27 25 26 27 26 25 23 21 19 17 15 12 14 13 13 14 14 15 15 15 17 17 15 14 15 17 16 13 12 12 12 12 11 11 13 14 14 13 13 14
22 26 25 24 30 24 28 23 22 28 25 23 26 26 24 23 20 19 17 15 15 16 15 15 16 16 15 16 16 18 17 15 15 16 15 13 12 13 13 13 14 13 13 15 16 16 17 17 17
22 25 30 29 29 21 26 20 24 30 27 25 27 26 25 23 22 20 20 18 18 17 17 16 17 16 16 17 16 17 15 14 15 15 13 13 14 14 14 15 15 15 16 17 17 18 20 20 20
25 23 26 29 31 16 29 9 20 27 29 28 27 26 24 22 22 22 20 18 18 19 17 18 18 17 17 17 17 15 14 15 16 16 15 15 16 16 16 16 17 17 18 18 19 20 21 21 22
23 20 23 28 26 19 22 5 21 23 26 27 26 24 23 23 23 22 19 18 18 19 19 18 18 18 17 17 15 15 15 17 19 18 18 18 19 19 19 19 19 19 19 20 20 21 22 22 23
21 22 19 22 17 2 12 6 8 22 23 21 22 23 23 22 21 20 19 20 19 19 19 19 18 18 16 15 15 16 17 20 21 20 20 20 20 20 21 21 21 21 21 21 22 22 23 23 24
23 25 5 4 2 3 9 10 7 14 17 23 23 24 24 24 23 22 22 21 20 21 19 17 17 15 14 15 17 18 20 22 21 20 19 19 20 22 22 23 23 24 23 23 23 24 24 24 26
26 17 7 6 4 3 10 9 8 22 17 20 25 27 26 25 24 23 23 22 21 18 16 15 13 14 15 17 19 20 20 18 18 19 19 22 23 24 25 25 25 25 25 25 24 25 26 27 28
27 4 7 11 8 5 7 7 13 17 27 19 23 26 25 23 22 21 20 19 17 16 14 13 13 16 18 19 20 19 19 19 20 22 23 23 23 24 24 24 24 25 25 25 25 26 28 30 31
20 9 3 4 5 3 3 7 10 25 25 27 23 22 21 20 18 17 17 17 15 13 13 14 17 19 19 19 19 20 20 21 21 22 22 22 23 25 25 26 26 26 26 27 28 29 31 32 32
14 18 1 3 2 4 4 6 20 13 22 21 21 19 19 18 16 16 16 14 12 13 15 17 19 19 19 18 18 19 20 21 21 22 23 25 25 27 27 27 27 28 29 31 32 32 32 33 33
10 18 17 3 1 2 3 3 11 18 17 19 20 19 18 16 16 16 14 12 13 15 17 18 18 18 17 18 19 20 21 22 23 25 26 27 27 28 27 27 27 28 29 30 31 31 31 32 32

GFSSGP_700_spd_150.txt.gz
Wind_Speed
30 29 26 22 15 14 24 19 26 12 15 24 17 20 16 13 7 4 5 11 16 16 13 10 8 6 6 5 5 5 5 5 5 5 6 7 8 9 10 10 10 10 11 11 11 12 12 12 13
31 30 28 25 19 22 26 25 28 20 17 22 19 20 18 13 9 5 4 13 15 16 13 11 8 7 6 5 5 5 5 6 7 8 9 9 9 10 11 10 10 11 11 11 12 12 12 13 13
32 32 30 23 24 30 22 26 22 23 17 24 22 23 20 16 10 7 6 12 13 14 13 12 9 9 8 6 6 6 6 7 8 8 9 10 10 10 10 9 9 9 10 11 11 12 12 12 13
33 33 35 32 30 29 25 22 21 27 19 27 25 22 22 16 11 5 9 13 13 13 13 11 9 8 6 6 5 6 7 7 7 9 10 9 9 8 8 9 10 10 11 13 13 13 14 14 15
35 38 29 31 31 25 37 29 19 22 20 29 25 26 22 19 14 9 10 11 13 13 12 10 8 6 6 5 6 7 6 7 8 8 7 7 8 9 10 11 12 12 13 13 14 14 15 16 16
37 40 25 37 32 30 35 38 18 23 23 31 27 24 23 21 17 12 10 11 11 10 10 9 8 6 6 6 6 6 7 7 7 6 7 8 9 10 11 12 13 14 15 16 17 18 18 19 19
42 40 35 28 31 31 37 36 34 22 24 29 29 27 24 22 19 15 9 12 11 10 10 9 8 7 6 6 6 6 6 6 6 7 8 9 10 12 13 14 15 17 18 19 19 20 20 21 20
43 34 31 27 33 31 39 33 35 26 28 30 29 29 28 22 19 16 10 12 12 10 10 9 8 7 5 5 6 6 6 6 6 7 8 10 11 13 15 17 18 19 20 21 21 21 20 19 18
40 33 34 34 27 30 38 38 31 34 30 33 33 32 28 23 20 16 12 13 14 11 10 9 8 6 5 5 5 6 6 6 7 8 10 12 14 16 18 19 20 21 21 21 20 19 18 17 16
40 36 33 25 22 28 38 34 32 34 33 33 33 32 29 25 20 16 14 15 15 12 11 9 7 6 5 5 5 6 6 7 9 11 13 14 16 18 20 21 21 20 19 18 16 15 15 16 17
39 34 29 19 32 32 31 31 35 32 35 34 31 31 28 25 22 20 18 18 16 13 11 9 7 6 5 6 5 6 7 8 10 12 15 17 18 18 19 19 19 18 17 15 14 14 15 16 16
28 32 27 22 28 37 28 34 33 32 34 33 31 28 24 22 22 22 21 18 16 14 12 9 7 6 6 6 6 8 9 10 12 14 15 16 17 16 16 16 16 15 14 13 13 14 14 17 17
32 21 32 35 23 30 32 29 32 33 34 34 32 29 27 23 25 26 24 21 18 15 12 10 8 7 7 7 8 9 10 11 13 15 15 15 15 15 15 14 14 13 12 12 13 15 16 17 15
32 27 17 30 23 26 28 31 32 34 35 33 31 28 26 25 27 26 23 20 18 15 11 10 8 8 8 8 9 10 11 12 13 14 14 13 12 13 13 13 12 11 12 12 14 16 16 15 12
21 28 22 31 33 21 27 31 35 33 34 34 32 29 27 29 28 26 24 22 18 15 11 9 9 8 9 10 10 11 12 13 14 13 13 12 13 14 14 15 14 14 15 15 16 16 14 13 11
26 22 26 29 34 24 29 28 34 32 32 32 30 30 31 30 29 28 25 22 18 14 13 9 10 9 10 11 12 12 13 13 14 13 12 13 14 15 15 15 15 15 15 15 14 12 12 11 10
26 23 30 21 38 31 31 23 35 33 32 31 29 30 31 32 31 28 23 21 17 14 13 10 10 10 12 12 13 13 14 14 14 14 13 14 15 15 13 13 13 14 14 13 12 11 11 11 11
28 25 30 21 36 34 32 21 32 33 31 29 29 31 32 30 28 25 23 21 16 15 12 11 11 12 13 14 14 14 14 15 14 14 15 16 16 13 12 12 13 13 13 13 14 13 13 13 14
29 28 29 23 32 31 26 21 28 32 33 31 29 30 30 29 28 27 23 21 16 15 12 13 12 12 14 14 14 14 15 15 13 13 16 16 15 12 13 13 14 14 14 15 16 15 14 16 16
26 25 24 25 25 21 26 25 27 33 29 28 28 29 30 31 28 25 23 19 17 16 13 15 13 14 15 14 14 16 16 15 13 14 16 16 14 14 15 15 15 15 16 17 17 17 16 17 17
22 25 23 31 28 22 26 23 27 33 31 30 29 29 28 26 25 25 22 20 19 15 16 15 14 15 15 14 16 17 16 14 14 15 17 17 16 17 17 17 17 17 18 18 20 20 18 19 19
18 24 25 29 29 18 28 15 27 32 32 31 30 30 28 27 28 26 23 21 17 17 17 16 16 16 15 15 17 17 15 14 15 17 18 18 18 19 19 19 19 19 19 20 21 22 20 21 21
14 25 24 28 24 20 26 8 20 30 35 34 30 30 30 29 27 25 23 21 20 19 17 17 17 18 16 18 17 16 14 15 17 19 21 20 19 19 19 20 21 21 21 21 21 22 22 22 22
18 19 25 24 17 12 20 7 16 31 33 31 30 30 30 29 28 26 23 22 19 18 18 18 18 18 18 18 16 15 15 17 20 22 23 20 19 19 20 22 22 22 22 22 23 23 23 23 24
19 18 6 6 4 7 18 9 2 28 27 31 30 29 29 29 27 25 22 19 18 19 18 20 19 18 17 17 16 15 17 20 22 23 20 19 20 22 22 22 21 22 22 23 24 24 24 25 26
19 20 5 5 7 5 13 9 6 18 24 26 25 27 28 28 26 24 21 20 20 20 21 19 18 17 16 17 17 18 19 21 21 20 20 22 23 24 23 21 22 22 23 25 25 25 26 27 27
21 17 7 7 7 6 6 5 15 16 17 21 25 27 27 28 27 24 22 21 21 20 20 17 17 16 17 17 18 20 21 21 21 21 22 23 23 23 23 24 24 25 26 27 28 27 28 29 30
17 20 4 3 5 6 4 5 8 23 20 21 23 26 29 28 24 21 20 19 19 18 17 16 17 17 18 19 20 21 21 20 21 22 22 22 23 24 25 26 27 27 27 28 29 29 30 31 31
16 10 4 4 4 4 5 9 21 13 28 25 26 20 20 18 18 18 18 18 18 17 16 17 18 18 19 20 21 20 20 20 21 22 24 24 26 27 28 28 27 27 27 28 28 28 28 29 30
12 16 8 1 2 2 2 4 19 25 14 26 22 20 18 18 18 18 18 18 17 17 17 17 17 18 19 21 21 21 21 22 24 24 25 26 27 27 25 24 23 24 25 27 28 29 30 31 31

GFSSGP_700_spd_153.txt.gz
Wind_Speed
31 29 26 23 14 15 25 27 20 9 10 14 10 16 15 6 10 7 5 12 13 16 13 11 9 8 6 3 4 5 5 6 6 6 7 8 9 10 10 11 11 10 10 11 12 12 12 12 12
31 30 28 20 20 25 28 24 20 15 11 10 14 23 17 17 11 9 5 11 17 17 14 12 10 6 5 4 4 4 5 6 7 8 9 9 9 10 11 10 10 10 10 9 10 11 11 12 12
31 30 30 22 27 36 26 23 25 15 25 17 18 20 21 21 15 11 8 10 14 15 14 13 11 8 7 6 5 5 6 7 7 8 9 10 10 10 9 8 8 9 10 11 12 13 14 14 14
31 32 34 28 32 30 28 17 19 21 27 18 19 22 25 20 17 9 8 12 14 16 16 14 11 8 7 6 5 5 7 7 7 8 8 8 7 6 8 9 10 11 12 13 13 14 15 16 16
31 31 30 33 35 27 29 22 26 24 23 22 23 24 27 23 16 11 9 14 15 14 14 13 10 8 7 6 5 7 6 7 7 7 7 7 8 9 9 10 11 13 13 14 15 16 17 17 18
32 33 27 41 34 33 29 29 31 19 17 20 28 26 27 24 19 14 12 12 12 12 13 12 10 8 7 6 6 6 7 7 7 7 7 7 9 10 11 12 13 14 15 17 17 19 19 20 20
35 27 37 33 36 32 33 27 25 19 20 21 29 29 28 24 22 17 12 13 12 12 12 11 10 8 7 6 6 6 7 6 6 7 7 8 9 11 12 14 15 17 18 20 20 21 21 21 20
32 25 34 39 34 36 31 26 25 23 21 20 30 29 30 26 24 19 15 13 13 12 12 11 9 8 7 7 7 7 6 6 6 7 8 10 11 13 15 16 18 19 20 21 21 21 20 19 17
27 28 39 38 34 26 27 32 27 25 26 30 31 38 32 26 24 21 16 13 14 14 12 10 9 8 7 7 7 6 6 6 7 8 9 11 13 15 17 19 19 19 20 19 19 18 17 16 15
30 34 37 26 28 27 26 33 28 33 38 31 33 35 30 28 24 20 17 14 15 14 13 11 10 8 8 7 7 6 6 7 7 10 11 13 15 16 17 17 17 16 16 16 15 14 13 15 16
31 40 27 26 26 26 31 28 27 34 32 35 32 37 32 30 27 23 20 18 17 16 13 12 10 9 8 7 7 6 7 8 9 11 13 15 15 15 15 14 14 14 14 13 12 12 13 13 14
30 32 33 26 25 28 32 18 28 30 20 29 34 33 33 28 28 26 23 20 18 17 14 13 11 9 8 8 7 7 8 9 10 12 14 14 14 13 14 13 13 13 12 12 12 12 13 15 16
31 31 28 29 24 35 33 22 27 28 30 28 37 33 32 28 29 28 25 23 21 18 16 14 11 9 8 8 8 8 9 10 11 12 14 14 12 12 12 13 12 12 12 12 13 15 16 16 15
41 31 29 31 26 24 36 33 25 26 34 32 31 31 31 26 27 26 27 25 23 19 16 14 11 9 8 9 9 8 10 11 11 13 14 13 13 12 13 14 13 13 14 15 16 17 16 15 13
29 36 32 25 35 24 20 29 38 28 33 34 30 32 32 30 28 27 27 27 23 21 17 14 11 10 9 9 10 9 10 12 12 13 14 13 13 13 14 15 15 15 15 15 16 15 14 13 11
35 39 36 40 29 28 22 31 27 35 34 32 32 34 33 31 30 30 30 28 24 20 17 14 11 10 10 11 11 10 11 13 13 14 14 14 14 15 16 16 14 14 13 14 14 13 13 14 13
34 29 43 35 31 28 25 23 31 36 33 32 34 34 33 32 33 32 33 28 24 20 17 14 12 10 10 13 12 12 12 14 14 15 15 14 15 15 16 15 14 13 13 13 13 13 14 14 14
26 36 29 32 32 36 22 20 27 32 32 30 32 33 34 33 35 35 32 27 24 19 16 15 12 11 11 13 13 12 13 15 15 16 16 15 15 15 16 15 15 14 14 15 15 15 15 16 16
41 31 31 34 27 36 25 24 17 26 30 32 33 33 35 35 36 34 30 27 23 18 17 16 12 13 11 14 14 13 14 16 16 17 16 16 15 15 15 17 16 15 16 16 16 16 17 18 19
33 27 32 30 23 32 28 23 15 24 31 30 31 32 33 36 35 32 30 25 21 20 17 16 13 14 12 15 15 14 16 16 17 17 16 16 15 16 17 18 18 17 17 18 18 17 17 19 20
20 27 27 22 20 27 26 23 18 26 30 31 31 32 34 33 31 31 27 24 22 19 17 16 14 14 13 16 16 16 17 16 18 16 17 16 16 17 19 19 19 18 19 20 20 20 19 20 21
15 23 26 21 26 26 29 16 22 28 33 34 35 34 32 31 30 28 26 24 21 19 19 15 15 14 14 17 17 18 18 17 18 17 18 17 18 20 20 20 19 19 20 21 21 21 21 22 23
7 13 21 22 28 25 29 10 28 23 34 36 35 32 31 31 30 29 27 24 22 20 17 16 15 15 16 17 18 19 18 18 18 19 20 19 21 20 20 19 19 20 22 23 23 23 23 24 24
6 11 10 19 27 14 30 15 27 31 31 32 31 30 30 29 29 28 27 25 23 20 17 16 16 17 17 18 20 18 17 18 19 20 21 21 21 21 21 20 22 24 24 24 24 25 24 25 25
11 16 6 8 7 9 18 11 3 26 30 30 31 29 29 30 30 29 27 23 21 19 17 17 18 18 19 19 19 18 18 19 21 22 21 21 22 22 23 23 23 24 24 25 25 26 26 26 27
12 16 7 6 6 6 11 11 8 25 34 32 30 31 30 30 30 28 25 22 20 18 18 19 20 20 19 20 19 18 19 20 22 22 21 22 23 24 24 24 24 24 25 25 26 27 28 28 29
14 10 7 3 3 11 11 10 7 18 28 30 30 30 27 28 29 27 24 21 20 20 20 21 20 19 19 19 18 19 20 21 22 21 21 23 24 24 25 25 25 27 27 29 29 29 29 29 29
12 13 2 3 5 9 9 17 6 18 22 25 26 28 29 29 28 26 24 22 21 22 22 21 18 19 18 19 19 21 21 21 22 21 23 25 25 25 26 28 28 30 30 30 29 27 27 28 28
9 9 8 5 4 2 8 14 16 19 20 23 25 26 27 27 26 25 23 23 23 22 21 18 18 18 19 19 20 21 21 22 22 24 25 26 27 28 28 28 27 26 25 26 26 27 28 29 30
10 5 5 7 3 3 2 6 19 20 24 23 24 22 21 21 22 23 23 22 23 20 18 17 18 19 19 20 21 22 23 23 24 26 27 27 27 27 25 23 23 24 26 27 29 29 30 31 31

GFSSGP_700_spd_156.txt.gz
Wind_Speed
30 26 25 23 16 15 25 32 24 12 14 10 14 14 15 18 18 7 4 12 9 14 14 12 10 8 6 4 2 2 2 3 5 5 6 7 8 8 9 9 9 8 8 8 8 9 10 11 11
29 27 25 24 24 23 27 31 25 12 18 19 17 19 19 21 21 14 8 7 11 15 13 12 10 9 7 4 2 2 3 4 6 7 7 7 8 8 9 8 7 7 7 8 9 10 11 12 12
26 27 28 25 28 34 24 26 25 23 25 21 18 23 22 24 24 17 10 8 11 14 13 12 11 9 6 4 3 3 4 6 6 6 7 8 8 7 6 6 7 8 10 11 12 13 13 14 15
25 27 30 32 33 29 33 19 12 27 27 25 21 18 29 24 21 18 13 11 13 14 16 13 11 9 7 5 4 4 5 5 6 7 7 7 5 5 7 8 9 10 11 12 13 14 15 16 17
25 30 33 34 43 28 18 26 20 19 27 26 22 22 25 24 19 18 14 13 15 15 15 13 11 9 7 5 5 6 6 5 6 6 6 6 7 7 8 9 10 12 13 13 14 16 17 18 19
25 28 25 40 32 35 26 26 24 22 26 28 22 25 26 21 22 19 14 15 15 14 14 13 11 10 7 6 5 6 5 6 6 6 6 7 8 8 9 11 12 13 14 15 16 17 18 19 19
29 24 34 33 25 30 32 26 24 27 21 19 22 29 26 24 26 21 17 15 12 15 14 13 11 9 7 6 6 6 6 6 6 6 6 8 9 10 11 13 14 15 16 17 18 18 17 17 16
25 29 37 32 31 30 26 32 24 27 21 19 25 29 30 27 28 25 18 13 15 15 14 13 11 9 7 7 6 6 6 5 6 7 7 8 10 12 13 14 15 16 17 17 16 16 15 13 13
18 29 39 39 27 29 19 27 32 28 20 25 32 31 31 29 28 26 20 16 15 15 15 13 11 9 7 7 7 6 6 6 6 7 8 9 11 14 14 15 15 14 14 13 13 13 12 12 12
30 31 43 31 24 24 26 18 33 33 29 30 37 32 32 28 28 27 22 16 15 16 15 13 11 9 7 7 7 6 6 6 7 7 10 10 12 14 13 13 12 12 11 11 11 11 11 12 12
29 41 35 28 24 21 32 31 25 39 37 34 39 35 30 26 28 28 24 19 16 16 15 13 11 9 8 7 7 7 7 6 7 8 10 11 12 13 12 11 11 11 11 11 11 11 11 12 14
33 33 34 32 26 28 26 32 30 24 35 27 37 32 29 31 28 29 26 21 16 17 17 15 12 9 8 8 7 6 7 7 7 9 11 12 12 12 12 11 11 11 11 10 11 12 13 15 16
32 36 31 22 32 30 19 30 25 25 28 22 33 35 30 32 29 31 30 24 20 18 18 15 13 10 9 8 7 6 8 9 9 9 11 12 11 11 12 13 13 12 12 12 13 14 16 16 15
25 31 31 30 26 33 21 31 27 28 26 33 31 29 30 29 31 33 32 26 21 20 19 17 13 10 10 9 8 8 8 11 10 10 11 12 12 11 12 13 14 14 14 14 14 15 16 15 13
31 26 33 29 30 23 18 34 44 22 24 32 29 27 26 30 32 33 31 28 23 22 21 17 14 11 10 9 9 9 8 12 11 11 12 12 13 13 14 15 14 14 14 14 14 14 14 13 12
22 27 26 37 38 28 27 34 35 28 28 33 35 28 28 32 32 33 32 29 26 24 21 18 14 12 11 10 10 9 10 13 12 11 12 13 14 14 15 15 14 13 14 14 14 14 13 14 14
19 26 23 31 36 31 30 32 35 33 35 31 34 33 30 34 33 33 32 29 27 25 21 18 15 13 11 11 10 10 10 14 13 12 13 14 14 15 16 15 13 13 14 15 14 15 14 14 14
20 21 27 27 28 40 32 37 17 35 33 37 32 35 32 34 34 32 32 30 28 26 22 18 15 13 13 11 12 11 12 14 13 13 14 15 14 15 16 14 13 13 15 15 16 16 16 16 15
24 23 30 38 30 34 41 36 23 31 36 37 33 35 35 34 34 32 33 32 29 24 21 20 16 13 13 13 11 12 13 14 14 14 14 14 14 16 16 15 14 14 16 16 17 17 17 18 17
24 27 38 38 29 38 38 37 28 20 30 34 35 35 35 34 35 33 32 31 28 24 22 18 17 13 12 15 12 14 13 14 14 14 15 15 15 17 17 17 16 16 17 18 18 18 19 19 20
25 30 32 36 26 30 38 34 29 24 26 28 30 31 34 36 33 32 33 32 28 24 22 18 16 13 13 14 14 15 13 15 15 15 15 15 16 19 19 18 17 18 19 20 20 20 21 20 21
25 24 26 20 24 20 33 12 30 25 27 27 29 33 35 33 33 33 33 30 26 24 21 19 14 14 13 14 15 16 15 15 15 16 16 16 18 21 22 20 18 18 20 22 22 22 22 22 23
17 5 18 22 24 20 32 20 29 27 30 34 33 31 31 31 30 32 31 27 26 23 21 17 15 13 14 15 16 17 15 16 16 17 17 18 20 22 21 19 18 19 22 24 24 23 23 24 24
5 2 9 19 21 13 22 26 28 36 36 37 35 32 31 31 31 31 29 28 26 23 20 16 15 14 15 16 17 17 16 16 17 17 18 20 20 21 20 19 20 22 25 24 23 24 25 26 26
6 5 3 5 6 4 21 30 11 34 33 34 34 33 30 30 30 29 29 27 25 21 18 16 15 15 16 17 18 18 16 18 18 18 20 22 22 22 20 20 22 24 25 24 24 26 27 28 28
7 9 3 2 4 3 15 12 6 31 27 28 29 28 29 29 28 27 26 25 23 20 18 17 16 17 18 18 19 17 16 17 20 20 22 22 23 23 22 22 23 25 25 26 27 28 29 29 28
3 4 5 8 3 5 9 9 19 27 34 30 31 30 30 27 27 27 27 25 22 19 18 18 18 19 19 18 19 16 17 19 21 22 23 23 23 23 23 23 26 27 28 29 29 27 27 25 25
3 4 5 5 4 5 7 11 4 26 29 35 34 32 30 28 27 28 26 23 20 19 19 19 20 20 18 18 17 17 19 21 23 23 23 23 23 23 24 26 27 28 28 27 26 25 25 25 26
2 4 6 7 6 1 4 9 14 11 27 36 33 27 26 27 26 26 24 21 21 20 21 21 20 18 16 18 18 18 20 22 22 23 23 24 24 24 26 26 25 24 24 24 25 25 25 25 26
4 7 5 4 5 12 8 6 17 14 20 27 29 29 29 27 25 23 22 22 22 22 22 21 18 16 19 18 18 19 21 22 23 24 24 24 24 24 24 23 23 23 23 25 27 28 29 30 30

GFSSGP_700_spd_159.txt.gz
Wind_Speed
28 27 25 24 17 16 26 32 22 15 12 17 13 14 16 20 17 7 5 3 10 13 14 12 10 9 6 5 3 2 1 2 3 4 5 6 6 7 7 7 6 5 5 6 7 8 9 9 9
26 27 26 26 26 26 30 33 32 23 12 17 18 17 21 21 24 23 10 5 13 15 15 13 11 9 7 6 3 2 2 2 4 4 5 6 7 7 7 5 5 5 7 8 9 10 11 12 12
25 26 27 25 32 39 35 34 28 23 17 21 19 24 26 25 25 24 20 11 6 13 16 14 12 10 7 5 4 3 3 4 4 4 5 6 6 5 4 5 6 7 8 9 10 11 12 13 13
25 26 27 34 36 32 42 34 19 13 21 29 29 22 29 29 27 24 20 14 9 13 17 16 13 11 8 6 5 4 4 4 4 5 5 5 4 4 6 6 7 8 8 9 11 12 13 14 15
25 27 31 36 43 39 22 28 23 12 21 36 35 27 28 28 26 26 25 17 13 15 18 16 13 11 8 7 5 5 5 5 5 5 5 5 5 6 7 9 9 9 10 11 13 14 16 16 17
23 28 27 37 41 36 36 21 30 27 18 27 29 28 28 24 23 24 24 18 14 17 17 16 13 11 9 7 5 5 5 5 6 5 5 5 6 7 8 9 10 12 13 13 14 15 16 17 16
23 27 40 41 35 31 31 23 36 15 22 22 28 28 29 24 24 27 25 18 17 18 18 16 14 11 9 8 6 6 5 6 6 6 6 6 7 8 9 11 12 14 15 15 15 15 15 14 14
26 29 37 42 42 39 18 33 30 22 16 19 26 30 34 26 26 29 24 17 16 18 17 16 13 11 10 8 6 6 6 6 6 6 6 7 8 10 10 12 14 14 14 14 13 13 11 11 10
29 30 33 40 41 39 23 25 32 26 24 28 35 30 31 27 29 30 25 19 19 18 17 15 13 13 10 8 7 6 6 7 7 7 6 7 8 10 11 11 12 12 12 11 11 10 9 9 9
30 37 41 40 35 37 30 28 28 19 23 35 30 33 33 26 28 28 25 21 18 18 17 15 15 13 10 8 7 6 7 7 7 7 7 8 9 10 10 10 10 10 11 10 9 8 8 9 9
31 40 39 37 33 30 30 37 30 24 21 37 38 28 34 30 26 27 25 24 18 19 18 16 15 13 11 8 8 7 7 7 7 8 8 8 9 9 9 9 9 10 10 10 8 9 10 11 13
29 34 37 36 34 24 33 38 38 27 20 21 41 31 33 30 23 28 28 27 21 18 18 18 15 14 11 9 8 8 8 7 7 8 9 9 9 8 8 8 9 10 10 10 11 11 12 13 14
32 33 35 32 31 32 36 42 34 34 19 20 25 38 38 29 28 26 32 31 25 20 19 18 15 14 12 10 9 8 8 7 7 8 10 10 9 8 9 10 10 11 11 11 11 12 12 12 13
26 30 35 36 32 28 37 38 28 34 20 21 27 30 40 36 29 30 34 34 28 22 20 19 16 14 13 11 9 9 8 7 8 8 10 11 9 9 10 10 11 12 12 11 11 12 12 12 12
28 33 29 31 33 35 27 41 39 35 15 15 23 30 29 29 33 32 33 34 29 24 21 20 17 15 14 12 10 9 9 8 8 9 10 12 11 10 11 11 12 13 11 11 10 11 12 12 13
24 28 32 38 27 30 33 41 45 33 24 18 19 29 30 26 30 33 32 35 33 27 23 21 18 16 15 12 11 10 9 8 10 10 11 12 12 11 11 11 11 12 11 11 11 11 13 14 14
25 23 29 30 31 30 35 34 50 34 21 20 22 26 29 28 30 34 34 35 34 28 24 22 19 17 15 13 12 10 10 9 11 12 12 13 12 11 11 11 11 12 12 12 12 13 13 15 15
15 19 24 30 28 26 31 37 38 45 24 24 28 28 30 30 29 33 33 36 35 29 25 23 20 18 16 13 12 11 10 10 11 12 13 13 12 11 12 11 12 14 14 13 13 14 15 16 16
24 24 25 20 14 23 24 31 40 38 28 24 34 33 32 34 30 33 33 36 33 29 26 23 20 17 16 14 13 10 12 11 13 11 13 13 12 11 12 13 14 16 16 15 15 15 17 19 19
30 33 37 32 28 26 31 30 46 38 25 25 40 38 34 36 35 35 31 32 31 29 27 24 21 18 16 16 13 10 11 13 15 13 13 14 12 12 13 14 16 17 17 16 16 16 19 21 21
30 30 30 28 19 15 22 33 36 36 27 30 39 38 36 35 34 33 32 31 31 29 27 24 21 18 16 16 12 12 11 14 15 13 13 14 13 13 14 16 18 18 17 17 17 18 20 22 22
35 31 29 26 20 15 25 8 40 35 28 33 39 38 39 39 36 33 32 31 30 29 28 25 21 17 18 14 15 11 13 14 15 14 15 14 13 16 16 18 19 19 18 17 18 20 22 22 22
33 27 28 25 31 20 28 10 36 34 35 34 41 39 38 36 35 33 30 29 30 29 27 24 20 18 17 15 14 13 14 15 16 15 15 13 16 17 17 19 19 19 19 19 20 21 21 22 23
15 14 2 5 10 6 26 23 21 40 39 38 39 36 35 34 34 32 31 32 31 29 28 23 20 18 17 16 14 15 16 16 16 16 14 15 17 18 19 20 20 20 20 20 20 21 22 24 25
3 10 2 1 3 4 23 24 8 37 35 35 38 35 33 32 33 34 35 33 32 30 25 21 19 18 18 16 16 16 17 16 16 16 14 16 18 19 20 21 21 21 21 20 21 22 24 26 26
8 6 4 3 2 3 12 12 28 19 31 33 31 31 31 31 31 33 32 31 29 26 24 21 19 19 18 17 17 18 18 16 16 16 16 18 20 21 20 20 21 21 21 22 22 23 24 24 23
4 5 4 6 2 1 5 9 14 26 24 39 40 34 30 31 31 31 30 29 28 27 24 21 20 19 18 18 18 18 17 16 16 18 18 20 21 21 21 21 22 23 23 22 22 21 22 21 22
5 9 1 8 4 2 5 7 5 18 27 36 42 37 32 29 30 31 30 29 28 26 24 22 20 19 19 18 17 17 17 16 18 19 19 20 21 21 21 22 22 22 22 21 21 22 23 23 25
5 7 6 4 4 2 3 6 6 16 31 33 37 36 31 29 29 28 28 28 26 24 23 21 20 19 18 18 17 17 16 17 19 19 20 20 21 20 21 22 21 21 20 21 23 24 24 25 26
6 3 0 1 7 5 4 5 8 19 27 30 30 32 32 29 27 26 27 26 24 23 22 21 19 19 18 17 17 17 17 19 19 20 20 21 21 21 21 21 20 20 22 24 26 27 29 29 30